Theta_e
314 315 314 314 316 316 314 315 316 316 317 318 318 319 321 322 322 320 318 317 316 316 315 315 315 315 309 300 297 321 327 325 319 311 305 304 303 302 299 299 298 297 299 300 300 307 309
314 314 315 313 313 313 314 314 315 315 315 315 316 317 318 321 321 319 318 317 316 315 315 315 315 314 305 295 315 321 319 314 312 308 306 305 305 305 302 301 298 300 299 301 304 309 308
315 314 314 314 314 314 312 312 314 314 315 315 315 316 317 319 320 319 318 316 315 315 315 314 314 309 302 298 312 317 314 310 311 308 304 306 308 305 304 301 303 302 298 301 305 307 306
312 313 315 313 313 314 313 312 311 313 314 315 315 314 315 315 317 318 317 315 315 315 315 314 313 306 299 308 311 310 313 311 309 310 308 308 308 305 303 305 301 297 298 297 302 305 306
310 311 312 313 313 312 313 313 312 311 312 314 314 314 314 314 315 316 315 314 314 314 314 314 306 305 297 311 306 310 312 308 306 307 308 308 307 303 302 298 295 296 293 296 298 306 305
309 310 310 312 312 313 312 312 313 312 313 313 313 313 314 314 314 315 313 313 312 311 311 310 307 299 300 300 308 312 311 310 307 305 305 304 301 299 298 297 290 292 293 295 297 301 304
308 308 309 309 311 312 314 313 312 312 311 313 313 313 314 313 314 313 310 307 301 301 304 302 300 297 297 306 311 308 311 309 308 305 300 300 298 295 297 297 297 296 294 293 297 299 302
309 309 308 309 310 311 311 313 312 312 312 312 312 312 312 312 314 312 309 302 303 306 299 305 304 302 303 309 304 308 311 305 303 298 299 297 295 298 297 297 297 296 294 294 297 297 300
309 309 309 308 308 309 310 311 312 311 312 312 312 311 311 311 313 311 306 305 311 311 300 301 304 304 305 307 304 304 307 303 300 297 297 295 298 298 297 296 296 296 294 294 294 295 297
309 308 308 309 309 308 309 310 310 311 311 311 310 311 310 311 309 307 304 311 312 310 291 293 299 304 307 308 302 308 307 304 300 297 297 297 299 297 296 296 297 293 298 296 295 293 291
308 308 308 308 308 308 307 308 309 310 310 310 310 310 310 311 306 304 309 311 311 308 280 296 302 311 308 302 301 302 305 303 297 297 298 296 297 297 296 297 298 296 299 297 296 293 293
308 308 308 308 308 307 307 307 307 308 310 309 309 309 309 308 309 309 311 314 312 292 280 291 302 300 300 300 300 301 302 305 302 298 298 297 300 300 299 299 299 300 297 296 294 293 288
308 308 308 308 307 307 307 307 307 308 308 309 308 308 308 311 305 312 314 309 293 285 295 291 296 297 297 295 297 298 297 296 295 291 292 295 297 300 302 297 299 298 296 289 287 286 286
308 308 308 308 308 307 307 306 306 307 308 309 308 308 309 307 313 311 311 298 287 290 292 298 297 295 293 295 295 296 295 294 295 295 291 290 289 297 301 299 297 296 296 289 282 283 286
308 308 307 307 308 307 307 306 306 306 306 308 307 304 303 306 310 310 303 288 287 292 296 295 295 292 291 294 294 295 294 295 296 296 292 290 290 298 301 301 300 294 293 296 289 288 287
308 308 307 307 307 307 306 306 305 306 306 307 301 299 298 307 310 306 296 289 293 299 301 300 291 294 289 292 292 293 292 296 295 296 299 296 290 297 299 302 300 297 298 291 290 284 282
308 307 307 307 307 307 306 306 305 305 306 307 299 292 300 307 309 299 288 290 294 300 302 299 297 295 293 292 293 292 293 295 297 295 298 296 295 293 298 297 295 295 293 292 293 290 286
306 307 307 307 307 307 307 306 305 305 306 304 296 286 300 305 291 293 289 293 297 297 301 299 301 299 297 295 291 292 293 296 298 298 295 298 295 289 293 298 299 298 295 294 290 287 287
304 304 305 307 306 306 306 305 305 305 305 299 290 292 301 301 285 288 292 293 296 296 297 297 297 300 301 296 290 293 294 299 298 297 297 298 292 288 290 293 297 295 295 294 292 290 287
304 304 305 305 305 306 306 305 305 304 305 299 293 285 294 295 295 291 289 290 291 298 296 298 298 300 299 296 296 294 294 299 299 299 300 300 293 291 287 290 294 292 293 293 294 289 290
303 303 304 304 304 305 306 305 304 304 305 299 293 288 293 285 288 291 291 291 290 291 297 298 296 296 297 292 293 292 297 300 300 300 299 300 292 291 292 292 294 294 293 292 292 293 291
303 303 303 303 304 304 306 305 304 304 304 295 288 289 293 291 291 289 290 290 290 292 294 294 293 296 296 295 296 293 297 298 297 298 297 297 292 291 290 292 292 292 294 293 293 292 292
303 303 303 303 304 304 305 304 304 304 303 294 295 296 294 291 290 288 287 290 292 295 296 298 296 295 294 297 301 300 300 301 301 299 295 295 291 290 287 289 291 287 291 293 294 294 296
302 303 303 303 304 304 304 304 303 304 302 298 296 295 290 286 290 288 290 292 292 294 293 296 299 296 299 304 303 303 300 300 299 298 299 292 291 289 286 286 283 294 296 296 295 295 296
302 303 303 303 304 303 303 304 303 303 303 298 297 296 293 287 290 291 290 290 294 296 295 296 299 302 304 300 296 292 291 292 293 295 296 296 291 286 286 286 289 291 293 294 293 294 297
303 302 303 303 303 303 303 303 303 303 304 298 297 299 296 290 288 293 291 292 290 292 293 296 302 303 302 295 290 288 287 290 290 292 295 292 292 293 284 285 283 293 296 297 297 289 297
302 302 303 303 302 302 303 303 303 303 303 298 294 299 297 290 294 296 292 291 295 294 292 295 296 297 301 289 287 286 288 294 288 288 288 289 288 288 283 287 289 295 296 297 289 293 298
302 302 302 302 302 303 302 303 303 303 303 298 293 299 297 292 294 296 298 296 296 295 290 294 294 295 292 288 288 289 287 291 290 292 291 291 289 288 286 286 286 296 294 293 299 297 299
302 302 302 302 302 302 302 302 302 303 302 300 293 299 300 292 294 302 302 302 300 301 297 297 295 295 296 293 290 289 288 288 289 288 293 291 294 292 293 294 300 297 300 300 299 299 298
Wind_Speed
16 17 16 15 13 12 15 14 12 11 11 12 14 13 13 12 10 10 10 10 10 10 12 13 15 17 6 3 8 2 11 11 6 3 4 4 3 2 1 3 2 5 6 2 4 2 4
17 16 16 17 17 17 15 14 11 10 10 11 12 12 14 13 10 10 10 10 11 9 11 11 11 14 2 4 2 8 10 7 4 3 3 3 2 2 2 4 4 2 5 8 2 5 4
20 17 17 16 14 16 18 17 12 12 10 10 11 10 12 13 11 10 11 11 11 11 10 9 7 3 3 13 4 6 8 5 6 4 4 3 2 1 1 3 3 3 3 2 2 4 3
23 20 19 18 16 14 13 16 18 14 12 10 10 10 10 13 12 12 11 12 12 11 11 8 2 1 9 2 3 4 4 2 3 3 2 2 3 1 2 4 4 2 2 1 0 2 2
24 23 21 20 19 17 15 14 14 16 15 10 9 10 11 10 11 10 11 13 13 11 6 3 0 1 10 0 3 5 8 4 5 3 3 2 2 1 1 3 3 4 0 2 2 6 5
25 24 24 21 19 20 18 16 14 13 12 10 9 10 11 11 9 9 10 12 6 1 1 3 2 2 6 3 2 3 5 5 3 5 2 2 3 0 2 1 2 1 1 1 3 4 3
26 26 25 24 23 20 21 18 16 13 15 12 9 8 9 11 9 4 5 4 3 2 3 8 4 4 5 5 1 4 4 8 4 2 4 1 3 6 9 6 3 2 1 1 1 0 3
26 25 26 25 23 23 23 22 18 14 13 12 10 6 7 10 10 2 2 2 3 1 9 11 15 9 6 2 3 4 8 7 6 5 5 2 5 5 2 3 5 3 1 0 3 4 4
27 27 27 26 25 24 23 22 21 16 14 13 10 7 6 7 2 1 3 5 3 1 4 8 7 6 7 11 8 6 11 5 5 7 8 5 4 5 5 2 6 4 3 4 2 2 3
29 29 29 28 26 24 24 22 21 19 16 13 10 8 6 2 3 3 3 2 3 3 3 8 6 7 6 8 5 8 10 5 3 11 9 5 1 5 4 4 4 3 8 2 4 2 2
31 30 30 30 29 26 24 23 21 20 19 16 12 10 7 9 0 3 3 3 6 1 4 4 4 5 7 9 7 6 6 3 8 7 7 5 6 4 4 6 7 5 4 2 3 3 1
33 32 31 30 29 28 25 24 22 20 22 18 14 12 11 3 4 4 1 2 1 1 9 3 6 6 7 2 2 4 4 3 3 5 1 4 1 5 6 2 5 6 2 6 4 2 1
34 33 32 31 31 29 28 25 23 22 17 20 15 16 14 5 5 5 2 2 3 7 4 2 3 4 6 5 3 5 9 6 7 5 4 1 3 1 3 2 1 4 4 2 1 1 3
34 35 34 33 31 31 30 27 24 22 19 18 16 13 10 8 3 3 4 3 10 6 10 1 2 3 7 6 5 3 8 11 2 4 4 6 3 6 4 5 6 3 6 5 3 3 2
36 35 35 34 33 32 31 29 26 23 21 19 18 7 5 5 9 1 5 12 9 9 5 2 2 1 4 4 6 4 6 11 10 7 5 5 4 2 2 2 2 4 4 1 7 2 1
38 37 36 35 34 34 33 30 27 24 22 22 8 5 10 7 8 5 7 19 8 6 5 5 6 4 8 7 7 12 8 5 6 9 4 7 2 1 0 3 5 2 7 3 1 4 3
37 37 37 36 35 35 35 33 30 26 23 25 7 7 5 11 8 8 16 14 9 5 4 4 4 3 4 5 8 6 10 3 8 7 3 5 4 1 2 4 8 4 2 3 4 2 3
24 29 37 37 36 35 36 35 31 28 26 22 6 8 9 16 15 9 19 12 5 10 3 2 3 4 4 3 6 7 12 9 10 13 9 6 5 5 7 1 1 3 4 4 4 4 1
29 30 28 27 34 35 37 37 34 32 32 12 6 5 9 16 15 17 14 15 7 8 11 8 5 6 1 1 3 6 6 5 9 9 10 8 1 2 3 1 2 3 5 4 5 3 7
31 31 31 30 27 35 38 39 36 34 35 11 6 9 8 12 18 21 18 20 19 10 10 5 4 2 2 3 3 2 5 3 7 4 5 10 5 7 11 6 6 5 6 6 5 4 5
34 33 33 32 29 28 39 41 38 36 37 11 6 6 9 16 22 22 21 14 26 13 9 13 6 12 3 5 3 5 2 1 3 5 4 5 7 6 5 5 6 7 5 11 10 7 8
36 35 35 33 33 32 37 41 39 38 40 11 5 6 4 13 24 25 15 21 26 24 17 13 9 14 14 7 8 5 4 3 3 1 6 1 5 5 3 3 6 5 6 10 9 2 8
35 36 37 35 33 34 31 43 40 39 37 7 5 2 2 13 21 18 24 19 17 20 12 10 13 3 7 17 9 5 5 5 5 3 2 3 8 5 5 2 3 5 8 10 6 6 6
30 37 35 35 33 33 32 43 42 40 37 4 4 3 5 6 13 19 21 18 22 24 12 15 9 12 5 3 4 1 5 2 5 3 5 7 5 2 3 2 6 3 2 3 11 5 9
31 32 35 35 33 33 34 41 41 40 42 7 3 3 3 3 10 13 18 24 10 15 17 14 8 4 1 4 2 4 4 3 1 1 4 3 6 4 6 5 3 2 5 8 8 14 11
25 29 36 33 32 32 36 41 39 40 40 8 4 2 4 5 3 13 18 18 16 11 7 13 1 4 6 3 3 5 6 2 4 3 3 4 4 4 4 5 10 6 5 5 4 13 8
22 32 31 31 31 32 39 40 38 42 37 8 3 4 4 2 4 5 14 15 15 8 5 6 9 4 5 2 2 4 4 7 4 8 6 3 2 6 3 4 6 7 4 5 6 15 7
26 27 29 30 29 36 37 37 40 41 36 9 4 3 4 1 2 6 4 9 10 17 9 6 8 5 2 5 4 4 3 5 3 4 7 8 8 4 4 2 8 8 6 11 7 2 6
24 27 27 30 35 37 35 33 39 38 34 11 5 3 4 4 4 4 4 8 8 14 13 14 7 8 8 6 4 3 3 1 6 8 0 4 7 8 10 8 2 11 4 7 4 4 6
Wind_Direction
283 289 284 287 294 283 287 290 297 308 310 315 313 313 304 291 290 292 295 301 309 311 320 325 328 328 340 327 250 53 127 138 134 155 176 149 128 160 155 239 236 225 271 269 280 158 80
275 279 282 280 281 283 286 284 280 280 292 305 309 305 305 293 285 291 295 298 301 302 307 319 327 329 305 272 114 140 133 137 151 161 180 148 153 191 243 242 222 241 276 305 212 147 134
290 267 270 274 279 274 280 283 282 280 277 290 301 307 311 309 296 296 297 296 296 296 294 308 318 341 287 241 104 147 157 171 168 172 180 212 172 142 312 268 282 282 298 1 106 174 164
284 290 280 261 266 268 260 275 279 282 275 278 292 304 306 310 308 295 293 295 292 289 285 281 301 345 248 202 172 166 197 204 171 227 251 212 156 213 218 308 328 344 103 251 359 194 20
277 278 278 289 261 259 263 260 260 273 278 271 283 296 302 299 303 301 299 299 296 301 260 184 184 205 264 49 217 210 176 173 142 184 241 304 112 78 38 356 328 22 319 81 187 189 148
271 272 271 274 279 264 250 255 257 259 271 264 271 291 300 299 307 310 313 293 293 335 149 147 265 341 256 190 184 169 196 169 134 130 134 146 68 236 95 118 248 340 358 309 237 167 147
267 270 268 272 267 275 258 244 251 253 256 258 255 277 301 313 313 359 349 2 309 237 226 212 177 261 291 294 256 223 184 143 123 125 160 69 168 221 238 193 216 145 185 235 259 208 151
258 259 261 266 266 266 269 261 239 240 245 246 246 247 293 308 316 119 104 215 249 200 302 237 244 251 254 61 329 255 166 141 155 165 124 111 231 215 198 182 230 162 176 285 302 340 193
256 254 253 255 257 260 258 268 249 228 234 242 240 221 263 300 270 193 193 229 96 27 269 278 207 206 201 169 198 237 188 147 143 150 176 179 204 112 146 196 220 171 174 204 239 97 65
256 250 247 246 248 249 255 251 265 234 224 227 231 222 235 294 231 163 231 258 256 172 289 263 220 251 156 153 232 195 203 152 158 179 159 229 205 162 184 211 197 207 177 195 97 183 181
253 250 246 242 241 241 242 249 242 257 227 214 211 208 223 207 165 199 149 352 119 113 293 220 167 145 153 181 141 220 197 76 163 166 144 227 165 171 169 212 161 249 127 167 114 127 138
250 248 245 240 235 235 236 236 242 236 243 217 205 221 217 251 226 240 319 335 172 154 246 301 139 163 140 218 157 110 155 66 140 126 117 225 164 170 196 230 172 147 150 58 61 113 190
248 244 241 239 233 228 229 231 231 233 220 227 211 220 207 201 214 187 198 252 169 214 320 239 199 170 149 169 202 151 170 172 161 146 180 345 218 208 144 124 80 104 70 317 216 105 204
248 243 240 235 231 225 222 223 225 227 222 222 200 213 215 202 216 139 168 177 216 193 232 235 37 118 178 146 225 146 140 185 244 118 130 173 251 179 180 208 167 167 159 176 215 187 163
244 243 238 232 226 221 218 215 217 216 215 202 197 214 223 205 230 156 183 209 211 179 190 282 81 131 224 196 192 149 168 198 188 181 154 144 252 278 163 146 135 142 187 125 105 22 245
241 239 235 231 223 217 213 209 209 209 206 190 181 177 227 180 189 218 205 223 214 193 153 115 187 203 213 183 175 191 171 188 190 194 157 194 154 312 164 139 45 152 134 147 45 169 234
236 234 233 229 221 215 208 203 202 200 199 179 180 168 187 174 189 202 208 216 209 235 98 159 153 267 239 186 185 185 189 232 193 164 139 134 141 242 194 198 170 144 173 58 114 138 194
253 241 233 224 219 211 204 197 196 191 189 170 181 183 161 157 206 202 215 186 200 207 161 141 129 225 224 240 181 184 196 213 167 149 158 187 145 173 200 76 114 151 172 160 136 193 144
234 236 235 231 217 209 199 191 191 185 183 168 188 177 163 157 205 207 208 207 204 188 206 158 189 218 112 304 223 189 192 226 157 149 154 177 185 149 319 104 36 197 182 145 108 97 190
235 229 222 216 229 206 195 185 187 181 178 161 177 171 161 182 219 222 195 203 198 198 229 188 150 213 171 292 205 250 204 230 179 211 131 126 142 170 223 221 166 193 191 183 151 159 182
230 225 220 213 211 224 192 181 182 178 174 166 189 196 220 169 206 221 207 196 194 184 202 191 182 230 166 204 283 232 134 90 113 170 142 146 185 180 224 208 182 198 180 176 198 200 196
226 221 213 210 203 206 191 179 177 178 172 183 173 172 235 168 196 214 230 204 196 193 171 209 183 198 206 226 214 175 91 110 225 240 161 197 187 151 187 144 204 232 205 195 218 223 246
222 218 209 203 200 198 197 173 173 176 168 175 220 175 171 197 173 199 212 210 200 186 220 200 197 205 186 225 247 264 239 216 179 146 210 169 139 136 220 88 147 286 209 191 192 204 190
219 212 199 197 194 192 194 172 169 177 182 123 164 139 169 176 177 195 188 220 209 199 184 212 180 194 242 146 126 55 52 62 166 189 171 156 134 103 152 113 227 249 100 203 218 237 218
215 197 194 190 188 186 183 170 168 178 184 162 150 133 174 188 194 183 189 199 206 207 208 181 177 149 175 37 98 183 323 9 199 79 181 202 132 115 150 201 296 210 199 180 176 249 213
193 182 181 181 182 178 178 167 170 180 177 152 150 102 71 191 224 197 177 188 200 194 171 198 187 85 53 85 122 208 185 148 240 147 107 86 60 151 154 187 222 190 209 140 119 270 197
170 166 169 173 172 175 173 162 175 177 172 136 97 102 85 153 249 231 187 189 190 195 158 141 172 137 143 133 178 208 201 134 226 179 169 118 42 167 153 215 285 244 140 145 154 261 191
151 156 160 164 170 166 157 166 169 168 169 132 102 100 126 126 288 315 324 161 164 202 183 149 136 211 117 167 175 198 192 179 165 230 181 163 155 175 111 139 262 157 97 173 215 197 187
154 153 156 161 156 150 156 159 162 165 171 131 116 79 88 90 310 317 256 267 259 192 164 175 175 161 182 165 188 104 164 153 143 238 4 219 193 177 189 204 207 198 195 191 149 188 194